Regional Weather Roundup
Issued by NWS

Home | Current Version | Previous Version | Graphics & Text | Print | Product List | Glossary On
Versions: 1 2 3 4 5 6 7 8 9 10 11 12 13 14 15 16 17 18 19 20 21 22 23 24 25 26 27 28 29 30 31 32 33 34 35 36 37 38 39 40 41 42 43 44 45 46 47 48 49 50
875
ASUS43 KBIS 131410
RWRND

NORTH DAKOTA REGIONAL WEATHER ROUNDUP
NATIONAL WEATHER SERVICE BISMARCK ND
800 AM CST SAT FEB 13 2016

NOTE: "FAIR" INDICATES FEW OR NO CLOUDS BELOW 12,000 FEET WITH NO
SIGNIFICANT WEATHER AND/OR OBSTRUCTIONS TO VISIBILITY.


NDZ001>003-009>011-017-131500-
NORTHWEST NORTH DAKOTA

CITY           SKY/WX    TMP DP  RH WIND       PRES   REMARKS
WILLISTON      CLOUDY    15   9  76 SE13G18   30.05F WCI   1
MINOT          CLOUDY    11   0  61 SE13      30.21F WCI  -4
MINOT AFB      CLOUDY     9   2  72 SE20      30.20F WCI -10
$$

NDZ018>021-031>035-040>046-131500-
SOUTHWEST NORTH DAKOTA

CITY           SKY/WX    TMP DP  RH WIND       PRES   REMARKS
BISMARCK       CLOUDY    10  -3  55 SE16      30.26F WCI  -7
DICKINSON      LGT SNOW  10   6  84 S22       30.03F FOG     WCI -10
GARRISON         N/A      9   2  73 SE18      30.19F WCI -10
HETTINGER ARPT CLOUDY    13  10  88 SE13      30.08F FOG     WCI  -2
$$

NDZ004>008-012>016-024-026-027-054-131500-
NORTHEAST NORTH DAKOTA

CITY           SKY/WX    TMP DP  RH WIND       PRES   REMARKS
GRAND FORKS    CLOUDY    -7 -14  71 S8        30.55F WCI -23
GRND FRKS AFB  CLOUDY    -8 -14  74 S8        30.53F WCI -24
DEVILS LAKE    CLOUDY    -6 -12  75 SE13      30.38F WCI -25
$$

NDZ022-023-025-028>030-036>039-047>053-131500-
SOUTHEAST NORTH DAKOTA

CITY           SKY/WX    TMP DP  RH WIND       PRES   REMARKS
FARGO          CLOUDY    -5 -11  75 SE7       30.56F WCI -19
JAMESTOWN      CLOUDY    -1 -10  65 SE14      30.38F WCI -20
$$





USA.gov is the U.S. government's official web portal to all federal, state and local government web resources and services.